This is the latest recevied weather packets stored in our database for station/object DK6MR. If no packets are shown the sender has not sent any weather packets the latest 10 day(s).
| Time | Temp. | Humidity | Pressure | Rain* | Wind** | Luminosity | Snow |
|---|---|---|---|---|---|---|---|
| 1777558084 | 20.56° C | 23% | 1024.4 hPa | 0 mm | - | - | - |
| 1777557183 | 20.56° C | 22% | 1024.7 hPa | 0 mm | - | - | - |
| 1777556282 | 20° C | 23% | 1024.7 hPa | 0 mm | - | - | - |
| 1777555381 | 20° C | 22% | 1024.4 hPa | 0 mm | - | - | - |
| 1777554480 | 19.44° C | 22% | 1024.7 hPa | 0 mm | - | - | - |
| 1777553579 | 19.44° C | 22% | 1025 hPa | 0 mm | - | - | - |
| 1777552678 | 19.44° C | 23% | 1024.7 hPa | 0 mm | - | - | - |
| 1777551777 | 19.44° C | 22% | 1025.4 hPa | 0 mm | - | - | - |
| 1777550874 | 17.78° C | 22% | 1025.7 hPa | 0 mm | - | - | - |
| 1777549972 | 17.78° C | 25% | 1025.4 hPa | 0 mm | - | - | - |
| 1777549070 | 17.78° C | 25% | 1025.4 hPa | 0 mm | - | - | - |
| 1777548169 | 17.78° C | 26% | 1025.7 hPa | 0 mm | - | - | - |
| 1777547268 | 17.22° C | 27% | 1025.7 hPa | 0 mm | - | - | - |
| 1777546367 | 16.67° C | 25% | 1025.7 hPa | 0 mm | - | - | - |
| 1777545466 | 16.67° C | 26% | 1026 hPa | 0 mm | - | - | - |
| 1777544565 | 16.11° C | 28% | 1026 hPa | 0 mm | - | - | - |
| 1777543664 | 15.56° C | 30% | 1026.4 hPa | 0 mm | - | - | - |
| 1777542763 | 15.56° C | 30% | 1026.4 hPa | 0 mm | - | - | - |
| 1777541862 | 15.56° C | 30% | 1026.4 hPa | 0 mm | - | - | - |
| 1777540962 | 15° C | 30% | 1026.4 hPa | 0 mm | - | - | - |
| 1777540061 | 13.89° C | 31% | 1026.7 hPa | 0 mm | - | - | - |
| 1777539160 | 14.44° C | 32% | 1026.7 hPa | 0 mm | - | - | - |
| 1777538259 | 13.33° C | 32% | 1026.7 hPa | 0 mm | - | - | - |
| 1777537358 | 12.78° C | 32% | 1027.1 hPa | 0 mm | - | - | - |
| 1777536457 | 12.78° C | 31% | 1026.7 hPa | 0 mm | - | - | - |
* Rain latest hour (hover to see other rain measurements)
** Current wind speed in m/s (hover to see current wind gust speed)